{"data":{"norad_id":67956,"epoch":"2026-09-19T02:50:07.493856Z","epoch_age_seconds":182655,"freshness":"STALE","line1":"1 67956U 26037AA  26262.11814229  .00016451  00000+0  60575-3 0  9999","line2":"2 67956  42.9990 178.2841 0001325 268.9098  91.1602 15.27593154 32929","mean_motion":15.27593154,"eccentricity":0.0001325,"inclination_deg":42.999,"raan_deg":178.2841,"arg_perigee_deg":268.9098,"mean_anomaly_deg":91.1602,"bstar":0.00060575,"rev_number":3292,"period_min":94.265936989136,"perigee_km":482.10060657529,"apogee_km":483.91881045304,"semimajor_km":6861.1467085142,"source":"CELESTRAK","updated_at":"2026-09-20T09:00:43.711961Z"}}